When you browse on this site, cookies collect data to enhance your experience and personalize the content and advertising you see.
Visit our Privacy Policy to learn more. By continuing to use the site, you agree to this use of cookies and data.
  • In United Kingdom
  • List of Countries
  • For 7 days
  • Water Temperature
  • Satellite Maps
  • Weather Map
  • Weather Widgets
  • user-avatar
    Login

    Hourly Weather Narni

    Today, 24 March, Sunday

    Time Temperature Precipitation Wind Pressure Humidity
    00:00 +11°C° 0 mm 1 mps 749 mmHg 73%
    01:00 +11°C° 0 mm 1 mps 749 mmHg 72%
    02:00 +11°C° 0 mm 1 mps 749 mmHg 70%
    03:00 +10°C° 0 mm 1 mps 749 mmHg 67%
    04:00 +10°C° 0 mm 1 mps 749 mmHg 65%
    05:00 +10°C° 0 mm 1 mps 749 mmHg 63%
    06:00 +10°C° 0 mm 1 mps 749 mmHg 61%
    07:00 +11°C° 0 mm 1 mps 749 mmHg 59%
    08:00 +14°C° 0 mm 1 mps 749 mmHg 52%
    09:00 +18°C° 0 mm 1 mps 749 mmHg 45%
    10:00 +19°C° 0 mm 0 mps 750 mmHg 38%
    11:00 +22°C° 0 mm 1 mps 749 mmHg 36%
    12:00 +23°C° 0 mm 1 mps 749 mmHg 34%
    13:00 +24°C° 0 mm 1 mps 749 mmHg 32%
    14:00 +24°C° 0 mm 1 mps 749 mmHg 35%
    15:00 +23°C° 0 mm 2 mps 748 mmHg 37%
    16:00 +23°C° 0 mm 2 mps 748 mmHg 40%
    17:00 +19°C° 0 mm 2 mps 748 mmHg 51%
    18:00 +18°C° 0 mm 1 mps 748 mmHg 63%
    19:00 +14°C° 0 mm 1 mps 747 mmHg 75%
    20:00 +13°C° 0 mm 1 mps 747 mmHg 78%
    21:00 +12°C° 0 mm 1 mps 748 mmHg 80%
    22:00 +12°C° 0 mm 1 mps 748 mmHg 83%
    23:00 +11°C° 0 mm 1 mps 748 mmHg 84%

    Tomorrow, 25 March, Monday

    Time Temperature Precipitation Wind Pressure Humidity
    00:00 +11°C° 0 mm 1 mps 748 mmHg 85%
    01:00 +10°C° 0 mm 1 mps 747 mmHg 85%
    02:00 +10°C° 0 mm 1 mps 747 mmHg 85%
    03:00 +10°C° 0 mm 1 mps 747 mmHg 84%
    04:00 +8°C° 0 mm 0 mps 746 mmHg 84%
    05:00 +9°C° 0 mm 0 mps 746 mmHg 81%
    06:00 +10°C° 0 mm 1 mps 746 mmHg 79%
    07:00 +10°C° 0 mm 1 mps 746 mmHg 76%
    08:00 +13°C° 0 mm 1 mps 746 mmHg 65%
    09:00 +16°C° 0 mm 1 mps 746 mmHg 54%
    10:00 +20°C° 0 mm 1 mps 746 mmHg 43%
    11:00 +19°C° 0 mm 2 mps 745 mmHg 42%
    12:00 +20°C° 0 mm 2 mps 745 mmHg 40%
    13:00 +21°C° 0 mm 3 mps 745 mmHg 38%
    14:00 +20°C° 0 mm 3 mps 744 mmHg 40%
    15:00 +19°C° 0 mm 3 mps 743 mmHg 42%
    16:00 +19°C° 0 mm 4 mps 743 mmHg 45%
    17:00 +16°C° 0 mm 3 mps 742 mmHg 53%
    18:00 +14°C° 0 mm 2 mps 742 mmHg 61%
    19:00 +12°C° 0 mm 2 mps 741 mmHg 70%
    20:00 +10°C° 0 mm 2 mps 741 mmHg 69%
    21:00 +10°C° 0 mm 2 mps 741 mmHg 68%
    22:00 +9°C° 0 mm 2 mps 741 mmHg 67%
    23:00 +10°C° 0 mm 1 mps 741 mmHg 65%

    Day after tomorrow, 26 March, Tuesday

    Time Temperature Precipitation Wind Pressure Humidity
    00:00 +10°C° 0 mm 1 mps 741 mmHg 63%
    01:00 +10°C° 0 mm 1 mps 741 mmHg 61%
    02:00 +10°C° 0 mm 1 mps 741 mmHg 62%
    03:00 +9°C° 0 mm 1 mps 741 mmHg 63%
    04:00 +9°C° 0 mm 1 mps 741 mmHg 64%
    05:00 +8°C° 0 mm 2 mps 742 mmHg 66%
    06:00 +9°C° 0 mm 3 mps 742 mmHg 67%
    07:00 +9°C° 0 mm 3 mps 742 mmHg 69%
    08:00 +10°C° 0 mm 4 mps 743 mmHg 64%
    09:00 +11°C° 0 mm 4 mps 743 mmHg 59%
    10:00 +12°C° 0 mm 5 mps 744 mmHg 54%
    11:00 +13°C° 0 mm 5 mps 744 mmHg 51%
    12:00 +13°C° 0 mm 5 mps 745 mmHg 49%
    13:00 +14°C° 0 mm 5 mps 745 mmHg 46%
    14:00 +13°C° 0 mm 5 mps 745 mmHg 47%
    15:00 +13°C° 0 mm 5 mps 745 mmHg 49%
    16:00 +13°C° 0 mm 5 mps 745 mmHg 50%
    17:00 +11°C° 0 mm 4 mps 745 mmHg 54%
    18:00 +10°C° 0 mm 3 mps 745 mmHg 58%
    19:00 +8°C° 0 mm 3 mps 745 mmHg 62%
    20:00 +8°C° 0 mm 3 mps 746 mmHg 63%
    21:00 +7°C° 0 mm 3 mps 746 mmHg 64%
    22:00 +7°C° 0 mm 3 mps 747 mmHg 65%
    23:00 +7°C° 0 mm 3 mps 747 mmHg 65%

    27 March, Wednesday

    Time Temperature Precipitation Wind Pressure Humidity
    00:00 +7°C° 0 mm 3 mps 747 mmHg 65%
    01:00 +8°C° 0 mm 3 mps 747 mmHg 64%
    02:00 +7°C° 0.1 mm 3 mps 747 mmHg 67%
    03:00 +7°C° 0.1 mm 2 mps 747 mmHg 70%
    04:00 +7°C° 0.1 mm 2 mps 747 mmHg 73%
    05:00 +7°C° 0.1 mm 2 mps 747 mmHg 75%
    06:00 +7°C° 0.1 mm 2 mps 747 mmHg 77%
    07:00 +7°C° 0.1 mm 3 mps 747 mmHg 79%
    08:00 +9°C° 0 mm 3 mps 748 mmHg 69%
    09:00 +11°C° 0 mm 3 mps 748 mmHg 60%
    10:00 +13°C° 0 mm 3 mps 749 mmHg 51%
    11:00 +14°C° 0 mm 4 mps 749 mmHg 48%
    12:00 +15°C° 0 mm 4 mps 749 mmHg 45%
    13:00 +17°C° 0 mm 4 mps 749 mmHg 43%
    14:00 +17°C° 0 mm 4 mps 749 mmHg 43%
    15:00 +15°C° 0 mm 4 mps 749 mmHg 44%
    16:00 +15°C° 0 mm 4 mps 748 mmHg 44%
    17:00 +13°C° 0 mm 4 mps 749 mmHg 50%
    18:00 +11°C° 0 mm 3 mps 749 mmHg 55%
    19:00 +9°C° 0 mm 3 mps 749 mmHg 61%
    20:00 +8°C° 0 mm 3 mps 750 mmHg 64%
    21:00 +7°C° 0 mm 2 mps 750 mmHg 67%
    22:00 +6°C° 0 mm 2 mps 750 mmHg 71%
    23:00 +6°C° 0 mm 2 mps 750 mmHg 72%

    28 March, Thursday

    Time Temperature Precipitation Wind Pressure Humidity
    00:00 +6°C° 0 mm 2 mps 750 mmHg 73%
    01:00 +5°C° 0 mm 2 mps 750 mmHg 75%
    02:00 +5°C° 0 mm 2 mps 750 mmHg 76%
    03:00 +5°C° 0 mm 2 mps 750 mmHg 78%
    04:00 +5°C° 0 mm 2 mps 750 mmHg 79%
    05:00 +5°C° 0 mm 2 mps 750 mmHg 78%
    06:00 +5°C° 0 mm 2 mps 750 mmHg 77%
    07:00 +6°C° 0 mm 2 mps 750 mmHg 76%
    08:00 +8°C° 0 mm 2 mps 750 mmHg 65%
    09:00 +11°C° 0 mm 3 mps 751 mmHg 54%
    10:00 +13°C° 0 mm 3 mps 751 mmHg 43%
    11:00 +16°C° 0 mm 3 mps 751 mmHg 41%
    12:00 +17°C° 0 mm 3 mps 751 mmHg 38%
    13:00 +18°C° 0 mm 3 mps 751 mmHg 35%
    14:00 +18°C° 0 mm 3 mps 750 mmHg 37%
    15:00 +17°C° 0 mm 3 mps 750 mmHg 38%
    16:00 +17°C° 0 mm 4 mps 750 mmHg 40%
    17:00 +14°C° 0 mm 3 mps 750 mmHg 46%
    18:00 +12°C° 0 mm 3 mps 750 mmHg 52%
    19:00 +9°C° 0 mm 3 mps 750 mmHg 58%
    20:00 +8°C° 0 mm 2 mps 750 mmHg 62%
    21:00 +7°C° 0 mm 2 mps 751 mmHg 66%
    22:00 +6°C° 0 mm 2 mps 751 mmHg 70%
    23:00 +6°C° 0 mm 2 mps 751 mmHg 69%

    29 March, Friday

    Time Temperature Precipitation Wind Pressure Humidity
    00:00 +6°C° 0 mm 2 mps 751 mmHg 68%
    01:00 +6°C° 0 mm 2 mps 751 mmHg 67%
    02:00 +5°C° 0 mm 2 mps 751 mmHg 68%
    03:00 +5°C° 0 mm 2 mps 751 mmHg 68%
    04:00 +5°C° 0 mm 2 mps 751 mmHg 68%
    05:00 +5°C° 0 mm 2 mps 751 mmHg 69%
    06:00 +7°C° 0 mm 1 mps 751 mmHg 69%
    07:00 +7°C° 0 mm 1 mps 751 mmHg 70%
    08:00 +10°C° 0 mm 1 mps 751 mmHg 61%
    09:00 +13°C° 0 mm 1 mps 752 mmHg 51%
    10:00 +16°C° 0 mm 1 mps 752 mmHg 41%
    11:00 +17°C° 0 mm 2 mps 752 mmHg 39%
    12:00 +17°C° 0 mm 2 mps 752 mmHg 37%
    13:00 +18°C° 0 mm 2 mps 752 mmHg 36%
    14:00 +18°C° 0 mm 2 mps 751 mmHg 39%
    15:00 +18°C° 0 mm 2 mps 751 mmHg 42%
    16:00 +17°C° 0 mm 2 mps 751 mmHg 45%
    17:00 +15°C° 0 mm 2 mps 751 mmHg 54%
    18:00 +13°C° 0 mm 2 mps 751 mmHg 63%
    19:00 +10°C° 0 mm 2 mps 751 mmHg 72%
    20:00 +9°C° 0 mm 2 mps 751 mmHg 75%
    21:00 +8°C° 0 mm 2 mps 751 mmHg 78%
    22:00 +7°C° 0 mm 2 mps 751 mmHg 80%
    23:00 +8°C° 0 mm 1 mps 751 mmHg 81%
    Show more